Le nostre stazioni meteo in Italia

Pubblicità
Il mio iltempo24.it
Siracusa, Italia (16464): Temperatura & dewpoint: 10.01.2017 15:00:00 - 16.01.2017 15:00:00 (CET)Siracusa, Italia (16464): velocità del vento: 10.01.2017 15:00:00 - 16.01.2017 15:00:00 (CET)Siracusa, Italia (16464): direzione del vento: 10.01.2017 15:00:00 - 16.01.2017 15:00:00 (CET)Siracusa, Italia (16464): reduced air pressure: 10.01.2017 15:00:00 - 16.01.2017 15:00:00 (CET)Siracusa, Italia (16464): precipitazioni: 10.01.2017 15:00:00 - 16.01.2017 15:00:00 (CET)
Data & Tempo tt [°C] td [°C] ff [km/h] ff [kn] dd ppp [hPa] rr [mm]
16.01.2017 15:00:00 11,5 1,1 8 4 ESE 1005,1 -
16.01.2017 14:00:00 11,8 1,6 18 10 ONO 1005,5 -
16.01.2017 13:00:00 11,8 3,0 11 6 SO 1005,5 0,0
16.01.2017 12:00:00 11,7 3,1 15 8 E 1005,8 -
16.01.2017 11:00:00 10,0 3,7 4 2 O 1006,6 -
16.01.2017 10:00:00 7,4 3,2 4 2 NNO 1006,5 -
16.01.2017 09:00:00 6,6 1,7 8 4 O 1006,7 -
16.01.2017 08:00:00 6,2 1,7 8 4 NO 1007,0 -
16.01.2017 07:00:00 6,6 2,0 9 5 O 1007,4 0,0
16.01.2017 06:00:00 6,1 1,9 4 2 O 1007,1 -
16.01.2017 05:00:00 6,2 2,2 4 2 N 1007,3 -
16.01.2017 04:00:00 6,6 1,9 2 1 OSO 1007,9 -
16.01.2017 03:00:00 7,5 2,3 4 2 NO 1008,9 -
16.01.2017 02:00:00 7,4 2,2 5 3 O 1009,7 -
16.01.2017 01:00:00 7,1 1,9 5 3 ONO 1009,6 0,0
16.01.2017 00:00:00 6,7 1,3 8 4 ONO 1010,0 -
15.01.2017 23:00:00 7,8 2,8 9 5 SO 1009,9 -
15.01.2017 22:00:00 6,8 1,6 4 2 SSO 1010,8 -
15.01.2017 21:00:00 6,7 1,3 4 2 NO 1011,2 -
15.01.2017 20:00:00 7,3 1,3 2 1 NO 1011,0 -
15.01.2017 19:00:00 8,3 1,8 4 2 N 1011,4 0,0
15.01.2017 18:00:00 9,1 1,9 0 0 N 1011,2 -
15.01.2017 17:00:00 10,3 2,1 5 3 OSO 1011,2 -
15.01.2017 16:00:00 10,3 1,6 8 4 O 1011,1 -
15.01.2017 15:00:00 11,3 3,5 9 5 SSO 1011,2 -
15.01.2017 14:00:00 11,2 2,4 11 6 SO 1011,7 -
15.01.2017 13:00:00 10,9 3,1 8 4 OSO 1012,5 0,0
15.01.2017 12:00:00 10,5 2,5 15 8 ESE 1013,0 -
15.01.2017 11:00:00 10,4 1,9 5 3 O 1013,2 -
15.01.2017 10:00:00 10,0 3,9 8 4 OSO 1013,9 -
15.01.2017 09:00:00 7,9 3,1 8 4 SO 1013,4 -
15.01.2017 08:00:00 5,8 0,7 4 2 O 1013,4 -
15.01.2017 07:00:00 5,4 -0,1 5 3 ONO 1013,5 0,0
15.01.2017 06:00:00 5,3 -0,2 5 3 NO 1013,3 -
15.01.2017 05:00:00 5,3 -0,4 5 3 ONO 1013,2 -
15.01.2017 04:00:00 4,8 -0,5 8 4 O 1013,3 -
15.01.2017 03:00:00 4,6 -0,5 5 3 ONO 1013,9 -
15.01.2017 02:00:00 4,5 -0,8 2 1 NO 1014,4 -
15.01.2017 01:00:00 3,7 -1,9 4 2 NO 1014,5 0,0
15.01.2017 00:00:00 4,3 -1,6 2 1 ONO 1014,8 -
14.01.2017 23:00:00 5,0 -1,1 4 2 NO 1015,2 -
14.01.2017 22:00:00 6,0 -0,4 2 1 ONO 1015,1 -
14.01.2017 21:00:00 6,0 0,1 5 3 NO 1015,1 -
14.01.2017 20:00:00 6,9 -0,9 4 2 ONO 1014,8 -
14.01.2017 19:00:00 9,2 -0,8 2 1 O 1014,5 0,0
14.01.2017 18:00:00 10,2 -1,0 4 2 NNO 1014,1 -
14.01.2017 17:00:00 11,7 -0,6 11 6 NO 1013,4 -
14.01.2017 16:00:00 12,7 0,0 16 9 NO 1012,8 -
14.01.2017 15:00:00 13,6 -0,6 15 8 NNO 1012,2 -
14.01.2017 14:00:00 13,7 -1,6 24 13 N 1011,9 -
14.01.2017 13:00:00 14,6 -2,5 18 10 NO 1012,0 0,0
14.01.2017 12:00:00 13,8 -2,7 21 11 NO 1012,5 -
14.01.2017 11:00:00 13,5 -3,4 22 12 NO 1012,7 -
14.01.2017 10:00:00 12,9 -1,6 15 8 ONO 1012,8 -
14.01.2017 09:00:00 11,4 0,7 8 4 SSO 1012,8 -
14.01.2017 08:00:00 8,0 -0,8 2 1 ONO 1012,7 -
14.01.2017 07:00:00 9,0 -1,0 9 5 O 1012,4 0,0
14.01.2017 06:00:00 10,2 0,4 11 6 ONO 1011,6 -
14.01.2017 05:00:00 11,3 4,7 4 2 O 1011,0 -
14.01.2017 04:00:00 12,8 6,8 9 5 SO 1011,0 -
14.01.2017 03:00:00 13,5 7,0 8 4 OSO 1010,8 -
14.01.2017 02:00:00 13,6 7,7 11 6 O 1010,6 -
14.01.2017 01:00:00 13,1 7,7 9 5 O 1010,8 0,0
14.01.2017 00:00:00 13,2 7,4 13 7 O 1011,0 -
13.01.2017 23:00:00 13,4 6,7 11 6 OSO 1011,6 -
13.01.2017 22:00:00 13,3 6,6 13 7 OSO 1011,4 -
13.01.2017 21:00:00 12,9 6,2 18 10 SO 1011,3 -
13.01.2017 20:00:00 13,8 7,0 15 8 ONO 1012,5 -
13.01.2017 19:00:00 14,1 7,3 9 5 SO 1012,7 0,0
13.01.2017 18:00:00 14,3 7,5 9 5 OSO 1012,4 -
13.01.2017 17:00:00 14,7 6,9 16 9 OSO 1012,8 -
13.01.2017 16:00:00 15,1 6,8 16 9 OSO 1013,7 -
13.01.2017 15:00:00 14,5 8,2 11 6 OSO 1014,2 -
13.01.2017 14:00:00 14,3 8,4 11 6 OSO 1014,8 -
13.01.2017 13:00:00 15,5 7,2 15 8 OSO 1015,7 0,0
13.01.2017 12:00:00 15,3 6,0 18 10 OSO 1017,2 -
13.01.2017 11:00:00 15,5 6,4 13 7 O 1018,6 -
13.01.2017 10:00:00 14,4 6,7 15 8 OSO 1019,3 -
13.01.2017 09:00:00 13,4 6,0 11 6 SO 1019,7 -
13.01.2017 08:00:00 9,7 4,6 4 2 OSO 1019,9 -
13.01.2017 07:00:00 10,2 5,7 5 3 O 1020,2 0,0
13.01.2017 06:00:00 8,6 4,2 5 3 O 1020,7 -
13.01.2017 05:00:00 8,6 4,0 0 0 N 1021,0 -
13.01.2017 04:00:00 7,7 2,7 2 1 NO 1021,7 -
13.01.2017 03:00:00 7,4 2,8 4 2 O 1022,7 -
13.01.2017 02:00:00 6,1 1,8 4 2 ONO 1023,3 -
13.01.2017 01:00:00 5,3 1,0 9 5 NO 1023,8 0,0
13.01.2017 00:00:00 5,3 1,2 5 3 NO 1024,1 -
12.01.2017 23:00:00 5,5 1,2 4 2 ONO 1024,2 -
12.01.2017 22:00:00 6,2 2,0 4 2 NO 1024,3 -
12.01.2017 21:00:00 7,3 3,5 4 2 O 1024,4 -
12.01.2017 20:00:00 8,4 4,6 5 3 ONO 1024,4 -
12.01.2017 19:00:00 9,7 4,8 4 2 O 1024,4 0,0
12.01.2017 18:00:00 13,0 6,3 8 4 SO 1024,3 -
12.01.2017 17:00:00 14,4 7,6 8 4 SSE 1024,1 -
12.01.2017 16:00:00 14,4 8,9 5 3 ESE 1024,1 -
12.01.2017 15:00:00 14,0 8,1 8 4 ESE 1024,2 -
12.01.2017 14:00:00 13,9 8,0 8 4 ESE 1024,4 -
12.01.2017 13:00:00 13,3 7,0 5 3 ENE 1024,9 0,0
12.01.2017 12:00:00 14,7 8,8 11 6 S 1025,3 -
12.01.2017 11:00:00 13,9 8,0 4 2 SE 1025,6 -
12.01.2017 10:00:00 12,4 9,9 2 1 OSO 1025,4 -
12.01.2017 09:00:00 8,0 5,4 4 2 NO 1024,9 -
12.01.2017 08:00:00 6,5 3,8 4 2 NO 1024,6 -
12.01.2017 07:00:00 6,9 3,8 5 3 ONO 1023,9 0,0
12.01.2017 06:00:00 7,7 4,4 4 2 NO 1023,1 -
12.01.2017 05:00:00 8,6 5,1 4 2 ONO 1023,0 -
12.01.2017 04:00:00 9,1 5,4 4 2 NNO 1023,1 -
12.01.2017 03:00:00 10,2 6,3 8 4 N 1023,1 -
12.01.2017 02:00:00 10,8 5,9 5 3 NNO 1022,9 -
12.01.2017 01:00:00 11,4 6,3 8 4 ENE 1022,5 0,0
12.01.2017 00:00:00 11,2 6,1 5 3 NE 1022,1 -
11.01.2017 23:00:00 11,3 6,8 8 4 NE 1021,9 -
11.01.2017 22:00:00 10,9 7,4 5 3 NE 1021,3 -
11.01.2017 21:00:00 10,5 7,5 11 6 ENE 1021,0 -
11.01.2017 20:00:00 10,5 7,3 21 11 NNE 1020,4 -
11.01.2017 19:00:00 10,9 7,4 15 8 NE 1019,1 0,0
11.01.2017 18:00:00 10,9 7,5 15 8 ENE 1017,7 -
11.01.2017 17:00:00 10,8 7,8 21 11 ENE 1016,6 -
11.01.2017 16:00:00 11,8 8,2 8 4 NO 1015,9 -
11.01.2017 15:00:00 11,7 7,9 5 3 SE 1015,2 -
11.01.2017 14:00:00 11,6 8,4 5 3 ESE 1014,8 -
11.01.2017 13:00:00 11,1 8,8 4 2 ESE 1014,3 0,0
11.01.2017 12:00:00 10,1 8,2 2 1 OSO 1013,9 -
11.01.2017 11:00:00 9,6 7,7 8 4 O 1014,0 -
11.01.2017 10:00:00 9,2 7,1 5 3 O 1013,1 -
11.01.2017 09:00:00 9,0 6,6 4 2 O 1012,4 -
11.01.2017 08:00:00 9,3 6,5 4 2 NNE 1011,0 -
11.01.2017 07:00:00 9,2 6,1 4 2 NNO 1010,3 0,0
11.01.2017 06:00:00 9,3 6,3 2 1 N 1009,3 -
11.01.2017 05:00:00 9,6 6,6 2 1 NO 1009,0 -
11.01.2017 04:00:00 9,6 6,6 8 4 SO 1008,4 -
11.01.2017 03:00:00 9,8 6,8 11 6 SO 1008,4 -
11.01.2017 02:00:00 9,8 6,7 5 3 SSO 1007,9 -
11.01.2017 01:00:00 8,8 5,3 5 3 O 1008,0 0,0
11.01.2017 00:00:00 9,8 6,8 9 5 SSO 1008,0 -
10.01.2017 23:00:00 9,0 5,1 5 3 OSO 1008,3 -
10.01.2017 22:00:00 9,2 5,5 4 2 SSO 1008,0 -
10.01.2017 21:00:00 9,8 5,5 11 6 S 1008,3 -
10.01.2017 20:00:00 9,2 4,9 5 3 SSO 1008,6 -
10.01.2017 19:00:00 9,8 2,8 8 4 SO 1009,2 0,0
10.01.2017 18:00:00 10,3 0,8 5 3 SO 1009,2 -
10.01.2017 17:00:00 10,8 0,1 5 3 SSO 1009,3 -
10.01.2017 16:00:00 11,7 -3,8 13 7 O 1009,6 -
10.01.2017 15:00:00 13,1 -3,8 11 6 O 1009,4 -

tt = Temperatura
td = dewpoint
ff = velocità del vento
dd = direzione del vento
ppp = reduced air pressure
rr = precipitazioni

Stazioni seguenti

WeatherPro
AMSI
MeteoEarth